Tracking 29510 objects as of 16-Sep-2024
HD Live streaming from Space Station
objects crossing your sky now

THOR ABLESTAR DEB

Track THOR ABLESTAR DEB now!
10-day predictions


NORAD ID: 357
Int'l Code: 1961-015DX
Perigee: 863.4 km
Apogee: 888.9 km
Inclination: 66.8 °
Period: 102.3 minutes
Semi major axis: 7247 km
RCS: 0.059 m2 (small)
Launch date: June 29, 1961
Source: United States (US)
Launch site: AIR FORCE EASTERN TEST RANGE (AFETR)

Note: This is SATELLITE DEBRIS
Your satellite tracking list
Your tracking list is empty




NASA's NSSDC Master Catalog

Two Line Element Set (TLE):
1 00357U 61015DX  24260.50357248  .00003135  00000-0  19136-2 0  9990
2 00357  66.8100  51.9688 0017575 276.5089  83.3997 14.07188905205905
Source of the keplerian elements: AFSPC